Pine Forest High School FL US WEATHERSTEM current weather conditions

sailwx.info

Wind from 040 at 2 knots gusting 4

Air temperature 14.3° C
Dewpoint 12.5° C

Last reported at 2019-Dec-08 01:40 UTC.
Time now 2019-Dec-08 02:21 UTC

Location: N 30°29' W 087°18'.
View on Google Maps.

See reports from other nearby stations

  
Tides and Currents Weather Stations Pressure Air Temp Water Temp Dewpoint Dewpoint Depression Visibility Wind Speed Wind Dir Waves Ship Positions
date/time (UTC)wind fromknots sea level pressurealtimeterstation pressurevisibilityair tempwater tempwave heightnotes
2019-Dec-08 01:40 040 2 gusting 4 14.3
2019-Dec-08 01:30 042 2 gusting 5 14.4
2019-Dec-08 01:20 032 2 gusting 4 14.4
2019-Dec-08 01:10 048 3 gusting 4 14.5
2019-Dec-08 01:00 056 2 gusting 4 14.6
2019-Dec-08 00:40 019 2 gusting 2 14.7
2019-Dec-08 00:30 019 1 gusting 2 14.7
2019-Dec-08 00:20 005 2 gusting 3 14.9
2019-Dec-08 00:10 341 2 gusting 2 15.1
2019-Dec-08 00:00 032 0 gusting 3 15.1
2019-Dec-07 23:50 348 1 gusting 5 15.1
2019-Dec-07 23:40 339 2 gusting 5 14.9
2019-Dec-07 23:30 345 2 gusting 4 14.9
2019-Dec-07 23:20 336 2 gusting 3 15.1
2019-Dec-07 23:10 335 1 gusting 4 15.2
2019-Dec-07 23:00 324 4 gusting 4 15.4
2019-Dec-07 22:50 329 2 gusting 4 15.8
2019-Dec-07 22:40 336 3 gusting 5 16.1
2019-Dec-07 22:30 325 0 gusting 7 16.3
2019-Dec-07 22:20 327 4 gusting 7 16.5
2019-Dec-07 22:10 344 3 gusting 9 16.7
2019-Dec-07 22:00 346 8 gusting 10 16.9
2019-Dec-07 21:50 015 4 gusting 7 17.4
2019-Dec-07 21:40 328 5 gusting 8 17.4
2019-Dec-07 21:30 030 4 gusting 10 17.4
2019-Dec-07 21:20 005 8 gusting 9 17.4
2019-Dec-07 21:10 322 2 gusting 8 17.5
2019-Dec-07 21:00 050 6 gusting 11 17.3
2019-Dec-07 20:50 022 7 gusting 11 17.3
2019-Dec-07 20:40 360 8 gusting 10 17.3
2019-Dec-07 20:30 360 4 gusting 11 17.1
2019-Dec-07 20:20 311 7 gusting 10 17.2
2019-Dec-07 20:10 300 7 gusting 12 16.8
2019-Dec-07 20:00 009 4 gusting 8 16.9
2019-Dec-07 19:50 009 6 gusting 10 16.9
2019-Dec-07 19:40 360 3 gusting 9 16.8
2019-Dec-07 19:30 317 8 gusting 9 16.8
2019-Dec-07 19:20 350 4 gusting 10 16.7
2019-Dec-07 19:10 229 2 gusting 12 16.8
2019-Dec-07 19:00 325 6 gusting 10 16.5
2019-Dec-07 18:50 022 3 gusting 9 16.1
2019-Dec-07 18:40 038 2 gusting 8 16.3
2019-Dec-07 18:30 029 2 gusting 11 16.2
2019-Dec-07 18:20 029 6 gusting 10 16.1
2019-Dec-07 18:10 308 7 gusting 10 15.5
2019-Dec-07 18:00 028 5 gusting 9 15.1
2019-Dec-07 17:50 011 4 gusting 10 14.9
2019-Dec-07 17:40 344 6 gusting 11 14.6
2019-Dec-07 17:30 334 3 gusting 9 14.3
2019-Dec-07 17:20 327 8 gusting 11 14.2
2019-Dec-07 17:10 034 3 gusting 11 13.9
2019-Dec-07 17:00 022 7 gusting 11 13.5
2019-Dec-07 16:50 019 4 gusting 10 13.4
2019-Dec-07 16:40 360 8 gusting 10 13.3
2019-Dec-07 16:30 355 5 gusting 8 13.6
2019-Dec-07 16:20 005 3 gusting 10 13.4
2019-Dec-07 16:10 355 9 gusting 12 13.4
2019-Dec-07 16:00 045 4 gusting 10 13.5
2019-Dec-07 15:50 098 0 gusting 8 13.6
2019-Dec-07 15:40 031 3 gusting 13 13.5
2019-Dec-07 15:30 039 8 gusting 13 13.4
2019-Dec-07 15:20 050 12 gusting 13 13.7
2019-Dec-07 15:10 023 6 gusting 13 13.6
2019-Dec-07 15:00 028 3 gusting 11 13.5
2019-Dec-07 14:50 030 5 gusting 14 13.5
2019-Dec-07 14:40 033 8 gusting 12 13.5
2019-Dec-07 14:30 050 9 gusting 11 13.5
2019-Dec-07 14:20 060 8 gusting 12 13.5
2019-Dec-07 14:10 040 6 gusting 12 13.4
2019-Dec-07 14:00 022 6 gusting 11 13.3
2019-Dec-07 13:50 059 8 gusting 12 13.2
2019-Dec-07 13:40 025 4 gusting 12 13.2
2019-Dec-07 13:30 058 2 gusting 11 13.1
2019-Dec-07 13:20 022 9 gusting 10 13.1
2019-Dec-07 13:10 052 7 gusting 9 13.0
2019-Dec-07 13:00 047 7 gusting 12 12.9
2019-Dec-07 12:50 036 9 gusting 13 12.9
2019-Dec-07 12:40 023 7 gusting 10 13.0
2019-Dec-07 12:30 049 5 gusting 10 13.0
2019-Dec-07 12:20 044 8 gusting 12 13.1
2019-Dec-07 12:10 042 7 gusting 8 13.0
2019-Dec-07 12:00 015 6 gusting 10 13.1
2019-Dec-07 11:50 013 3 gusting 8 13.1
2019-Dec-07 11:40 012 3 gusting 7 13.1
2019-Dec-07 11:30 035 2 gusting 7 13.1
2019-Dec-07 11:20 034 2 gusting 6 13.2
2019-Dec-07 11:10 040 3 gusting 9 13.3
2019-Dec-07 11:00 013 6 gusting 9 13.4
2019-Dec-07 10:50 038 5 gusting 7 13.3
2019-Dec-07 10:40 038 4 gusting 9 13.4
2019-Dec-07 10:30 345 6 gusting 9 13.4
2019-Dec-07 10:20 021 3 gusting 6 13.5
2019-Dec-07 10:10 026 1 gusting 7 13.6
2019-Dec-07 10:00 011 4 gusting 6 13.7
2019-Dec-07 09:50 022 2 gusting 6 13.7
2019-Dec-07 09:40 024 4 gusting 11 13.8
2019-Dec-07 09:30 019 3 gusting 12 13.9
2019-Dec-07 09:20 033 7 gusting 11 14.1
2019-Dec-07 09:10 046 6 gusting 11 14.1
2019-Dec-07 09:00 044 3 gusting 10 14.2
2019-Dec-07 08:50 049 5 gusting 9 14.2
2019-Dec-07 08:40 024 4 gusting 7 14.3
2019-Dec-07 08:30 025 2 gusting 8 14.5
2019-Dec-07 08:20 012 6 gusting 7 14.6
2019-Dec-07 08:10 010 3 gusting 8 14.7
2019-Dec-07 08:00 066 3 gusting 7 14.7
2019-Dec-07 07:50 020 3 gusting 8 14.8
2019-Dec-07 07:40 030 5 gusting 8 14.8
2019-Dec-07 07:30 013 4 gusting 6 14.7
2019-Dec-07 07:20 018 2 gusting 6 14.7
2019-Dec-07 07:10 031 2 gusting 8 14.7
2019-Dec-07 07:00 039 2 gusting 7 14.8
2019-Dec-07 06:50 036 2 gusting 7 14.8
2019-Dec-07 06:40 026 4 gusting 7 14.9
2019-Dec-07 06:30 035 4 gusting 8 14.9
2019-Dec-07 06:20 011 6 gusting 8 14.9
2019-Dec-07 05:50 005 3 gusting 8 15.4
2019-Dec-07 05:40 027 4 gusting 7 15.6
2019-Dec-07 05:30 360 5 gusting 8 15.7
2019-Dec-07 05:20 355 4 gusting 8 15.9
2019-Dec-07 05:10 355 4 gusting 4 16.1
2019-Dec-07 05:00 101 1 gusting 2 16.1
2019-Dec-07 04:50 059 1 gusting 4 16.0
2019-Dec-07 04:40 042 1 gusting 3 16.1
2019-Dec-07 04:30 046 0 gusting 4 16.1
2019-Dec-07 04:20 022 3 gusting 4 16.2
2019-Dec-07 04:10 16.3
2019-Dec-07 04:00 031 1 gusting 2 16.6
2019-Dec-07 03:50 027 2 gusting 2 16.7
2019-Dec-07 03:40 16.9
2019-Dec-07 03:30 036 0 gusting 1 17.1
2019-Dec-07 03:20 17.1
2019-Dec-07 03:10 030 1 gusting 2 17.2
2019-Dec-07 03:00 030 1 gusting 2 17.3
2019-Dec-07 02:50 17.5
2019-Dec-07 02:40 341 2 gusting 4 17.7
2019-Dec-07 02:30 355 2 gusting 3 17.8
2019-Dec-07 02:20 055 1 gusting 2 18.1
2019-Dec-07 02:10 036 1 gusting 1 18.2
2019-Dec-07 02:00 036 0 gusting 1 18.2
2019-Dec-07 01:50 034 0 gusting 2 18.3
2019-Dec-07 01:40 042 1 gusting 2 18.3
2019-Dec-07 01:30 011 0 gusting 3 18.2
2019-Dec-07 01:20 012 1 gusting 2 18.2
2019-Dec-07 01:10 18.5
2019-Dec-07 01:00 18.6
2019-Dec-07 00:50 078 0 gusting 1 18.7
2019-Dec-07 00:40 078 0 gusting 1 18.8
2019-Dec-07 00:30 078 0 gusting 1 18.7
2019-Dec-07 00:20 078 0 gusting 1 18.6
2019-Dec-07 00:10 078 1 gusting 2 18.7
2019-Dec-07 00:00 078 2 gusting 2 18.7
2019-Dec-06 23:50 066 1 gusting 6 18.4
2019-Dec-06 23:40 031 3 gusting 6 18.3
2019-Dec-06 23:30 019 2 gusting 4 18.4
2019-Dec-06 23:20 18.6
2019-Dec-06 23:10 18.7
2019-Dec-06 23:00 18.7
2019-Dec-06 22:50 017 0 gusting 1 18.8
2019-Dec-06 22:40 017 0 gusting 2 18.8
2019-Dec-06 22:30 027 2 gusting 2 18.8
2019-Dec-06 22:20 232 0 gusting 1 18.8
2019-Dec-06 22:10 232 0 gusting 1 18.9
2019-Dec-06 22:00 232 1 gusting 4 19.1
2019-Dec-06 21:50 238 4 gusting 8 19.4
2019-Dec-06 21:40 242 3 gusting 6 20.3
2019-Dec-06 21:30 229 1 gusting 2 20.7
2019-Dec-06 21:20 186 2 gusting 3 20.9
2019-Dec-06 21:10 173 1 gusting 4 21.1
2019-Dec-06 21:00 205 2 gusting 6 21.2
2019-Dec-06 20:50 227 4 gusting 6 21.2
2019-Dec-06 20:40 223 4 gusting 6 21.1
2019-Dec-06 20:30 253 6 gusting 8 21.0
2019-Dec-06 20:20 227 6 gusting 10 21.4
2019-Dec-06 20:10 232 4 gusting 7 21.6
2019-Dec-06 20:00 165 1 gusting 8 21.6
2019-Dec-06 19:50 177 1 gusting 6 21.6
2019-Dec-06 19:40 123 1 gusting 9 21.2
2019-Dec-06 19:30 162 6 gusting 10 21.2
2019-Dec-06 19:20 205 6 gusting 12 21.4
2019-Dec-06 19:10 140 6 gusting 13 21.8
2019-Dec-06 19:00 180 6 gusting 10 21.6
2019-Dec-06 18:50 162 6 gusting 11 21.5
2019-Dec-06 18:40 190 5 gusting 11 21.0
2019-Dec-06 18:30 188 2 gusting 9 21.1
2019-Dec-06 18:20 173 5 gusting 9 21.0
2019-Dec-06 18:10 147 5 gusting 13 21.1
2019-Dec-06 18:00 123 7 gusting 10 21.2
2019-Dec-06 17:50 133 9 gusting 10 20.8
2019-Dec-06 17:40 096 6 gusting 9 20.4
2019-Dec-06 17:30 112 7 gusting 11 20.2
2019-Dec-06 17:20 128 6 gusting 9 20.3
2019-Dec-06 17:10 093 3 gusting 9 19.8
2019-Dec-06 17:00 086 4 gusting 7 19.5
2019-Dec-06 16:50 136 3 gusting 6 19.1
2019-Dec-06 16:40 082 4 gusting 6 18.8
2019-Dec-06 16:30 101 3 gusting 6 18.1
2019-Dec-06 16:20 096 2 gusting 6 17.9
2019-Dec-06 16:10 103 5 gusting 6 17.6
2019-Dec-06 16:00 098 3 gusting 6 17.3
2019-Dec-06 15:50 094 3 gusting 6 17.1
2019-Dec-06 15:40 096 5 gusting 6 16.7
2019-Dec-06 15:30 096 2 gusting 4 16.3
2019-Dec-06 15:20 083 1 gusting 5 15.8
2019-Dec-06 15:10 090 3 gusting 5 15.2
2019-Dec-06 15:00 058 1 gusting 5 14.7
2019-Dec-06 14:40 100 3 gusting 6 13.7
2019-Dec-06 14:30 105 2 gusting 6 13.3
2019-Dec-06 14:20 090 2 gusting 5 13.1
2019-Dec-06 14:10 063 3 gusting 4 12.8
2019-Dec-06 14:00 085 1 gusting 5 12.6
2019-Dec-06 13:50 064 2 gusting 4 12.5
2019-Dec-06 13:40 067 2 gusting 5 12.4
2019-Dec-06 13:30 056 3 gusting 4 12.1
2019-Dec-06 13:20 065 3 gusting 4 12.0
2019-Dec-06 13:10 067 2 gusting 4 11.7
2019-Dec-06 13:00 069 3 gusting 5 11.4
2019-Dec-06 12:50 058 2 gusting 3 11.3
2019-Dec-06 12:40 058 2 gusting 3 11.1
2019-Dec-06 12:30 042 2 gusting 3 11.1
2019-Dec-06 12:20 050 3 gusting 3 10.9
2019-Dec-06 12:10 065 3 gusting 4 10.8
2019-Dec-06 12:00 069 2 gusting 3 10.8
2019-Dec-06 11:50 066 2 gusting 2 10.9
2019-Dec-06 11:40 051 1 gusting 2 11.1
2019-Dec-06 11:30 042 2 gusting 4 11.3
2019-Dec-06 11:20 046 3 gusting 4 11.5
2019-Dec-06 11:10 073 3 gusting 4 11.7
2019-Dec-06 11:00 053 2 gusting 4 11.8
2019-Dec-06 10:50 065 1 gusting 3 11.8
2019-Dec-06 10:40 074 1 gusting 3 11.9
2019-Dec-06 10:30 065 3 gusting 3 12.1
2019-Dec-06 10:20 074 2 gusting 2 11.9
2019-Dec-06 10:10 076 1 gusting 3 11.8
2019-Dec-06 10:00 072 2 gusting 2 11.3
2019-Dec-06 09:40 074 1 gusting 2 11.6
2019-Dec-06 09:30 074 2 gusting 2 11.9
2019-Dec-06 09:20 074 0 gusting 2 11.9
2019-Dec-06 09:10 074 2 gusting 3 11.8
2019-Dec-06 09:00 094 1 gusting 1 12.1
2019-Dec-06 08:20 11.8
2019-Dec-06 08:00 086 2 gusting 3 11.8
2019-Dec-06 07:50 084 1 gusting 3 11.3
2019-Dec-06 07:40 104 2 gusting 3 11.4
2019-Dec-06 07:30 084 2 gusting 5 11.5
2019-Dec-06 07:20 079 2 gusting 3 11.3
2019-Dec-06 07:10 060 2 gusting 3 11.2
2019-Dec-06 07:00 073 1 gusting 3 10.9
2019-Dec-06 06:50 10.6
2019-Dec-06 06:20 073 1 gusting 1 11.2
2019-Dec-06 06:10 073 0 gusting 2 11.4
2019-Dec-06 06:00 073 1 gusting 2 10.8
2019-Dec-06 05:50 073 1 gusting 2 10.4
2019-Dec-06 05:40 073 0 gusting 1 11.1
2019-Dec-06 05:30 073 0 gusting 1 11.0
2019-Dec-06 05:20 073 0 gusting 1 11.3
2019-Dec-06 05:10 073 0 gusting 1 12.2
2019-Dec-06 05:00 12.4
2019-Dec-06 04:50 073 0 gusting 2 12.3
2019-Dec-06 04:40 073 1 gusting 2 11.9
2019-Dec-06 04:30 073 0 gusting 1 11.4
2019-Dec-06 04:20 073 1 gusting 1 11.7
2019-Dec-06 04:10 073 1 gusting 1 11.6
2019-Dec-06 04:00 073 0 gusting 2 11.9
2019-Dec-06 03:50 073 1 gusting 2 12.3
2019-Dec-06 03:40 084 0 gusting 2 12.4
2019-Dec-06 03:30 084 0 gusting 1 12.4
2019-Dec-06 03:20 084 1 gusting 1 12.6
2019-Dec-06 03:10 084 1 gusting 1 12.6
2019-Dec-06 03:00 084 1 gusting 1 12.9
2019-Dec-06 02:50 084 1 gusting 2 12.9
2019-Dec-06 02:40 089 2 gusting 2 12.9
2019-Dec-06 02:30 089 2 gusting 2 12.8
2019-Dec-06 02:20 092 0 gusting 2 12.6
2019-Dec-06 02:10 092 0 gusting 1 12.2
2019-Dec-06 02:00 092 0 gusting 2 12.2